TimeCST,TemperatureF,Dew PointF,Humidity,Sea Level PressureIn,VisibilityMPH,Wind Direction,Wind SpeedMPH,Gust SpeedMPH,PrecipitationIn,Events,Conditions,WindDirDegrees,DateUTC
12:55 AM,48.2,44.1,86,30.05,10.0,Calm,Calm,-,N/A,,Mostly Cloudy,0,2012-12-24 06:55:00
1:55 AM,52.0,47.3,84,30.04,10.0,South,3.5,-,N/A,,Scattered Clouds,170,2012-12-24 07:55:00
2:55 AM,52.2,48.0,86,30.01,10.0,SSE,5.8,-,N/A,,Mostly Cloudy,150,2012-12-24 08:55:00
3:55 AM,54.7,50.5,86,29.98,10.0,SSE,6.9,-,N/A,,Mostly Cloudy,160,2012-12-24 09:55:00
4:55 AM,54.9,51.6,89,29.98,10.0,WSW,3.5,-,N/A,,Mostly Cloudy,240,2012-12-24 10:55:00
5:55 AM,57.9,54.7,89,29.96,10.0,South,5.8,-,N/A,,Scattered Clouds,170,2012-12-24 11:55:00
6:20 AM,57.2,55.4,94,29.97,10.0,SSW,6.9,-,N/A,,Light Drizzle,200,2012-12-24 12:20:00
6:23 AM,57.2,55.4,94,29.97,7.0,SSW,5.8,-,N/A,Rain,Rain,200,2012-12-24 12:23:00
6:33 AM,59.0,57.2,94,29.97,10.0,South,5.8,-,N/A,,Mostly Cloudy,170,2012-12-24 12:33:00
6:36 AM,59.0,57.2,94,29.97,10.0,South,5.8,-,N/A,,Scattered Clouds,180,2012-12-24 12:36:00
6:44 AM,59.0,57.2,94,29.97,10.0,South,5.8,-,N/A,,Mostly Cloudy,180,2012-12-24 12:44:00
6:47 AM,59.0,57.2,94,29.97,10.0,South,6.9,-,N/A,,Scattered Clouds,190,2012-12-24 12:47:00
6:55 AM,57.6,56.1,95,29.97,10.0,South,6.9,-,0.01,,Scattered Clouds,190,2012-12-24 12:55:00
7:06 AM,59.0,59.0,100,29.96,10.0,South,8.1,-,N/A,,Mostly Cloudy,190,2012-12-24 13:06:00
7:14 AM,60.8,59.0,94,29.97,10.0,SSW,6.9,-,N/A,,Mostly Cloudy,200,2012-12-24 13:14:00
7:20 AM,60.8,59.0,94,29.97,10.0,SSW,6.9,-,N/A,,Mostly Cloudy,200,2012-12-24 13:20:00
7:46 AM,62.6,60.8,94,29.97,10.0,South,8.1,-,N/A,,Mostly Cloudy,180,2012-12-24 13:46:00
7:55 AM,62.2,61.3,97,29.97,10.0,South,8.1,-,N/A,,Mostly Cloudy,190,2012-12-24 13:55:00
8:01 AM,62.6,60.8,94,29.97,10.0,South,9.2,-,N/A,,Light Drizzle,190,2012-12-24 14:01:00
8:24 AM,62.6,60.8,94,29.98,2.5,SSW,15.0,-,N/A,Rain,Rain,210,2012-12-24 14:24:00
8:26 AM,62.6,60.8,94,29.98,3.0,SSW,15.0,-,N/A,Rain,Light Rain,200,2012-12-24 14:26:00
8:34 AM,62.6,60.8,94,29.98,5.0,SSW,13.8,-,N/A,Rain,Light Rain,200,2012-12-24 14:34:00
8:51 AM,62.6,62.6,100,29.98,4.0,South,11.5,-,N/A,Rain,Rain,190,2012-12-24 14:51:00
8:55 AM,63.1,61.9,96,29.98,4.0,SSW,11.5,-,0.09,Rain,Rain,200,2012-12-24 14:55:00
8:56 AM,62.6,62.6,100,29.98,4.0,SSW,11.5,-,N/A,Rain,Light Rain,200,2012-12-24 14:56:00
9:01 AM,62.6,62.6,100,29.98,8.0,SSW,13.8,-,N/A,,Overcast,200,2012-12-24 15:01:00
9:45 AM,66.2,62.6,88,29.98,10.0,SSW,11.5,-,N/A,,Mostly Cloudy,200,2012-12-24 15:45:00
9:52 AM,66.2,62.6,88,29.98,10.0,South,11.5,-,N/A,,Mostly Cloudy,190,2012-12-24 15:52:00
9:55 AM,65.5,63.3,93,29.98,10.0,South,11.5,-,0.00,,Mostly Cloudy,190,2012-12-24 15:55:00
10:10 AM,66.2,64.4,94,29.96,10.0,South,15.0,-,N/A,,Mostly Cloudy,190,2012-12-24 16:10:00
10:15 AM,66.2,64.4,94,29.96,10.0,South,15.0,-,N/A,,Light Drizzle,190,2012-12-24 16:15:00
10:25 AM,66.2,62.6,88,29.95,10.0,SSW,17.3,-,N/A,,Overcast,200,2012-12-24 16:25:00
10:52 AM,66.2,62.6,88,29.94,10.0,South,20.7,29.9,N/A,,Light Drizzle,190,2012-12-24 16:52:00
10:55 AM,66.7,63.0,88,29.94,10.0,South,20.7,29.9,0.00,,Light Drizzle,190,2012-12-24 16:55:00
11:18 AM,66.2,62.6,88,29.94,2.5,SW,13.8,-,N/A,Rain,Light Rain,220,2012-12-24 17:18:00
11:20 AM,66.2,62.6,88,29.94,3.0,SW,13.8,-,N/A,Rain,Light Rain,220,2012-12-24 17:20:00
11:42 AM,66.2,62.6,88,29.92,8.0,SSW,17.3,24.2,N/A,,Light Drizzle,210,2012-12-24 17:42:00
11:45 AM,66.2,62.6,88,29.92,5.0,SSW,20.7,28.8,N/A,Rain,Light Rain,210,2012-12-24 17:45:00
11:55 AM,65.7,63.3,92,29.92,6.0,SSW,15.0,28.8,0.07,Rain,Light Rain,210,2012-12-24 17:55:00
12:05 PM,66.2,62.6,88,29.91,8.0,SSW,15.0,21.9,N/A,Rain,Light Rain,210,2012-12-24 18:05:00
12:06 PM,66.2,62.6,88,29.91,8.0,SW,13.8,21.9,N/A,Rain,Light Rain,220,2012-12-24 18:06:00
12:15 PM,66.2,62.6,88,29.91,10.0,SSW,19.6,24.2,N/A,,Light Drizzle,210,2012-12-24 18:15:00
12:17 PM,66.2,62.6,88,29.91,10.0,SSW,18.4,-,N/A,,Scattered Clouds,210,2012-12-24 18:17:00
12:21 PM,66.2,62.6,88,29.91,7.0,SW,16.1,-,N/A,,Scattered Clouds,220,2012-12-24 18:21:00
12:22 PM,66.2,62.6,88,29.91,6.0,SW,16.1,23.0,N/A,Rain,Heavy Rain,220,2012-12-24 18:22:00
12:43 PM,64.4,62.6,94,29.92,3.0,WSW,10.4,-,N/A,Rain,Light Rain,250,2012-12-24 18:43:00
12:55 PM,64.9,63.1,94,29.91,9.0,SW,8.1,-,0.05,Rain,Light Rain,230,2012-12-24 18:55:00
12:58 PM,66.2,64.4,94,29.91,10.0,WSW,8.1,-,N/A,,Mostly Cloudy,250,2012-12-24 18:58:00
1:07 PM,66.2,64.4,94,29.91,10.0,SW,11.5,-,N/A,,Scattered Clouds,230,2012-12-24 19:07:00
1:55 PM,68.0,63.3,85,29.90,10.0,WSW,9.2,-,0.00,,Scattered Clouds,240,2012-12-24 19:55:00
2:02 PM,68.0,62.6,83,29.90,10.0,SW,13.8,-,N/A,,Scattered Clouds,230,2012-12-24 20:02:00
2:55 PM,68.7,63.5,83,29.89,10.0,SSW,10.4,-,N/A,,Scattered Clouds,210,2012-12-24 20:55:00
3:17 PM,68.0,62.6,83,29.89,10.0,SSW,10.4,-,N/A,,Mostly Cloudy,210,2012-12-24 21:17:00
3:22 PM,68.0,62.6,83,29.90,10.0,SSW,8.1,-,N/A,,Scattered Clouds,200,2012-12-24 21:22:00
3:23 PM,68.0,64.4,88,29.90,10.0,SSW,9.2,-,N/A,,Mostly Cloudy,210,2012-12-24 21:23:00
3:41 PM,68.0,62.6,83,29.90,10.0,SSW,10.4,-,N/A,,Scattered Clouds,210,2012-12-24 21:41:00
3:55 PM,67.6,63.3,86,29.90,10.0,SSW,10.4,-,N/A,,Scattered Clouds,210,2012-12-24 21:55:00
4:55 PM,65.7,62.8,90,29.90,10.0,SSW,5.8,-,N/A,,Partly Cloudy,210,2012-12-24 22:55:00
5:55 PM,61.9,61.5,99,29.90,10.0,South,3.5,-,N/A,,Clear,190,2012-12-24 23:55:00
6:08 PM,62.6,62.6,100,29.91,2.5,SSE,3.5,-,N/A,,Clear,160,2012-12-25 00:08:00
6:09 PM,62.6,62.6,100,29.91,2.0,South,3.5,-,N/A,,Partly Cloudy,170,2012-12-25 00:09:00
6:10 PM,62.6,62.6,100,29.91,1.8,South,3.5,-,N/A,,Partly Cloudy,170,2012-12-25 00:10:00
6:11 PM,62.6,60.8,94,29.91,1.2,South,3.5,-,N/A,,Partly Cloudy,170,2012-12-25 00:11:00
6:13 PM,62.6,60.8,94,29.91,1.0,South,4.6,-,N/A,,Mist,180,2012-12-25 00:13:00
6:15 PM,60.8,60.8,100,29.91,0.8,South,4.6,-,N/A,,Mist,180,2012-12-25 00:15:00
6:19 PM,60.8,60.8,100,29.91,0.8,South,4.6,-,N/A,,Mist,180,2012-12-25 00:19:00
6:28 PM,60.8,60.8,100,29.91,0.8,SSW,3.5,-,N/A,,Mist,200,2012-12-25 00:28:00
6:33 PM,60.8,59.0,94,29.91,0.5,South,3.5,-,N/A,Fog,Fog,190,2012-12-25 00:33:00
6:46 PM,60.8,60.8,100,29.92,0.8,SSW,4.6,-,N/A,,Mist,210,2012-12-25 00:46:00
6:49 PM,60.8,60.8,100,29.92,1.0,SSW,4.6,-,N/A,,Mist,200,2012-12-25 00:49:00
6:50 PM,60.8,60.8,100,29.92,1.2,SSW,4.6,-,N/A,,Mostly Cloudy,200,2012-12-25 00:50:00
6:51 PM,60.8,60.8,100,29.92,1.5,SSW,4.6,-,N/A,,Overcast,200,2012-12-25 00:51:00
6:52 PM,60.8,60.8,100,29.92,2.0,SSW,4.6,-,N/A,,Overcast,200,2012-12-25 00:52:00
6:54 PM,62.6,60.8,94,29.92,3.0,SSW,4.6,-,N/A,,Overcast,200,2012-12-25 00:54:00
6:55 PM,61.7,61.5,99,29.92,2.5,SSW,4.6,-,N/A,,Overcast,200,2012-12-25 00:55:00
7:01 PM,62.6,60.8,94,29.92,2.5,South,4.6,-,N/A,,Overcast,190,2012-12-25 01:01:00
7:04 PM,62.6,62.6,100,29.92,2.0,SSW,5.8,-,N/A,,Overcast,200,2012-12-25 01:04:00
7:15 PM,62.6,62.6,100,29.92,1.8,SSW,6.9,-,N/A,,Overcast,210,2012-12-25 01:15:00
7:23 PM,62.6,62.6,100,29.92,1.2,SSW,4.6,-,N/A,,Overcast,200,2012-12-25 01:23:00
7:26 PM,62.6,62.6,100,29.92,1.0,SSW,4.6,-,N/A,,Mist,210,2012-12-25 01:26:00
7:27 PM,62.6,62.6,100,29.92,1.0,SSW,3.5,-,N/A,,Mist,210,2012-12-25 01:27:00
7:28 PM,62.6,62.6,100,29.92,0.8,SSW,4.6,-,N/A,,Mist,210,2012-12-25 01:28:00
7:34 PM,62.6,62.6,100,29.93,0.5,SSW,4.6,-,N/A,Fog,Fog,200,2012-12-25 01:34:00
7:47 PM,62.6,62.6,100,29.93,0.5,SSW,4.6,-,N/A,Fog,Fog,200,2012-12-25 01:47:00
7:49 PM,62.6,62.6,100,29.93,0.2,SSW,4.6,-,N/A,Fog,Fog,200,2012-12-25 01:49:00
7:55 PM,62.8,62.4,99,29.93,0.2,SSW,5.8,-,N/A,Fog,Fog,200,2012-12-25 01:55:00
8:18 PM,62.6,62.6,100,29.93,0.5,SSW,5.8,-,N/A,Fog,Fog,210,2012-12-25 02:18:00
8:40 PM,62.6,62.6,100,29.93,0.5,SSW,4.6,-,N/A,Fog,Fog,200,2012-12-25 02:40:00
8:41 PM,62.6,62.6,100,29.93,0.5,SSW,4.6,-,N/A,Fog,Fog,200,2012-12-25 02:41:00
8:47 PM,62.6,62.6,100,29.93,0.5,SSW,5.8,-,N/A,Fog,Fog,210,2012-12-25 02:47:00
8:55 PM,63.0,62.6,99,29.94,0.5,SSW,4.6,-,N/A,Fog,Fog,200,2012-12-25 02:55:00
9:02 PM,62.6,62.6,100,29.94,0.5,SSW,3.5,-,N/A,Fog,Fog,210,2012-12-25 03:02:00
9:11 PM,62.6,62.6,100,29.94,0.2,South,4.6,-,N/A,Fog,Fog,180,2012-12-25 03:11:00
9:16 PM,62.6,62.6,100,29.94,0.5,South,5.8,-,N/A,Fog,Fog,190,2012-12-25 03:16:00
9:50 PM,62.6,62.6,100,29.94,0.5,SSW,5.8,-,N/A,Fog,Fog,200,2012-12-25 03:50:00
9:55 PM,62.8,62.4,99,29.94,0.5,SSW,5.8,-,N/A,Fog,Fog,200,2012-12-25 03:55:00
9:57 PM,62.6,62.6,100,29.94,0.8,SSW,5.8,-,N/A,,Mist,200,2012-12-25 03:57:00
10:33 PM,62.6,62.6,100,29.94,1.0,SSW,5.8,-,N/A,,Mist,210,2012-12-25 04:33:00
10:37 PM,62.6,62.6,100,29.94,1.2,SW,5.8,-,N/A,,Overcast,220,2012-12-25 04:37:00
10:47 PM,62.6,62.6,100,29.94,1.5,SW,6.9,-,N/A,,Overcast,220,2012-12-25 04:47:00
10:54 PM,64.4,64.4,100,29.93,1.8,Variable,5.8,-,N/A,,Overcast,0,2012-12-25 04:54:00
10:55 PM,63.5,63.5,100,29.93,1.8,SW,6.9,-,N/A,,Overcast,230,2012-12-25 04:55:00
10:59 PM,64.4,64.4,100,29.93,2.5,Calm,Calm,-,N/A,,Overcast,0,2012-12-25 04:59:00
11:04 PM,64.4,64.4,100,29.93,3.0,SW,4.6,-,N/A,,Overcast,220,2012-12-25 05:04:00
11:15 PM,64.4,64.4,100,29.93,9.0,SW,6.9,-,N/A,,Overcast,230,2012-12-25 05:15:00
11:27 PM,64.4,64.4,100,29.93,10.0,SW,5.8,-,N/A,,Overcast,220,2012-12-25 05:27:00
11:45 PM,64.4,64.4,100,29.93,5.0,WSW,3.5,-,N/A,,Overcast,240,2012-12-25 05:45:00
11:55 PM,63.7,63.7,100,29.92,5.0,SSW,3.5,-,N/A,,Overcast,210,2012-12-25 05:55:00